Hors Challenge

La Course Pour La Vie - Estaimbourg (10.50 km)

dimanche 12 mai 2019

Vous pouvez trouver Le classement original sur : http://ultratiming.be  
 
LA COURSE POUR LA VIE - ESTAIMBOURG
DISTANCE : 10.46 km
dimanche 12 mai 2019
 
Place dos NOM Catégorie Pl/cat temps temps/km Vitesse
01:00:00              
1 602 ADAM THADDÉE HOMME 1 0:33:45 03:14 18.60
2 408 MALRAIT GERRY HOMME 2 0:41:00 03:55 15.31
3 531 BAUDOIN PIERRE-ALAIN HOMME 3 0:42:00 04:01 14.95
4 661 DEVAERE MARINE DAME 1 0:44:22 04:14 14.15
5 489 DUPONCHEEL YVES HOMME 4 0:44:23 04:15 14.14
6 572 VIFQUIN CHRISTOPHE HOMME 5 0:44:24 04:15 14.14
7 600 DEVOGHEL BRYAN HOMME 6 0:44:32 04:15 14.10
8 690 COURIER LIONEL HOMME 7 0:44:45 04:17 14.03
9 427 VERCAIGNE SANDRA DAME 2 0:45:12 04:19 13.89
10 623 BEN RADAOUI SID ALI HOMME 8 0:45:20 04:20 13.85
11 446 HANOT SÉBASTIEN HOMME 9 0:45:26 04:21 13.82
12 640 BROUCKAERT YOHAN HOMME 10 0:45:38 04:22 13.76
13 617 TRICQUET DOMINIQUE HOMME 11 0:45:58 04:24 13.66
14 444 TAVERNE LUDOVIC HOMME 12 0:46:25 04:26 13.52
15 442 DESMET STÉPHANE HOMME 13 0:47:14 04:31 13.29
16 695 VANDENBULCKE FRANCOIS HOMME 14 0:48:03 04:36 13.06
17 597 DELDAELE BASILE HOMME 15 0:48:07 04:36 13.05
18 725 MOREELS FABRICE HOMME 16 0:48:12 04:36 13.02
19 506 HUYS MARTIN HOMME 17 0:48:32 04:38 12.93
20 606 ACKE MAXIME HOMME 18 0:48:32 04:38 12.93
21 520 DUPONT OLIVIER HOMME 19 0:48:47 04:40 12.87
22 469 VANHOUTTE DAMIEN HOMME 20 0:48:48 04:40 12.86
23 472 WINAND ALEXANDRE HOMME 21 0:49:12 04:42 12.76
24 631 BREYNZ VINCENT HOMME 22 0:49:41 04:45 12.64
25 731 CHUFFART CHRISTOPHE HOMME 23 0:50:01 04:47 12.55
26 619 VANASSCHE CHRISTOPHE HOMME 24 0:50:31 04:50 12.43
27 439 ISBLED FABIEN HOMME 25 0:50:41 04:51 12.39
28 524 DAVENNE TAMARA DAME 3 0:50:41 04:51 12.39
29 740 LECLAIRE LANCELOT HOMME 26 0:51:01 04:53 12.30
30 523 CARETTE ARNOLD HOMME 27 0:51:05 04:53 12.29
31 715 MULLIE SAM HOMME 28 0:51:09 04:53 12.27
32 620 DHONDT MARION HOMME 29 0:51:12 04:54 12.26
33 540 QUIDOUSSE MATHIEU HOMME 30 0:51:24 04:55 12.21
34 588 OLIVIER NICOLAS HOMME 31 0:51:27 04:55 12.20
35 642 GRILLET JULIEN HOMME 32 0:51:34 04:56 12.17
36 532 BLONDEEL FRANCE DAME 4 0:51:37 04:56 12.16
37 590 DEDRYVER FRANZ HOMME 33 0:51:38 04:56 12.16
38 724 FARVACQUE JEREMY HOMME 34 0:51:38 04:56 12.16
39 625 PLOUVIER JÉRÔME HOMME 35 0:51:58 04:58 12.08
40 686 DELCROIX IVAN HOMME 36 0:52:03 04:58 12.06
41 451 DEWAELE THOMAS HOMME 37 0:52:10 04:59 12.03
42 428 LEFEBVRE CHRISTOPHE HOMME 38 0:52:11 04:59 12.03
43 411 LE DILY MAXIME HOMME 39 0:52:21 05:00 11.99
44 672 HESPEL MARTIN HOMME 40 0:52:39 05:02 11.92
45 465 ROS PHIRITH A 1 0:52:41 05:02 11.92
46 735 MOREL CAMILLE DAME 5 0:52:44 05:02 11.90
47 676 DE CONINCK BENOIT HOMME 41 0:52:44 05:02 11.90
48 689 LAMANT GUILLAUME HOMME 42 0:52:44 05:02 11.90
49 624 LECRENIER SÉBASTIEN HOMME 43 0:52:46 05:03 11.90
50 495 BELHAKAM ABDELILAH HOMME 44 0:52:58 05:04 11.85
51 425 FELLAHI CHARLOTTE DAME 6 0:53:15 05:05 11.79
52 525 SANDERS THEO HOMME 45 0:53:25 05:06 11.75
53 549 HERNANDEZ MATEO HOMME 46 0:53:26 05:06 11.75
54 468 VILLETTE ANDY HOMME 47 0:53:34 05:07 11.72
55 701 DUVAL MORGAN HOMME 48 0:53:48 05:09 11.67
56 665 COLIN FRANCOIS HOMME 49 0:53:59 05:10 11.63
57 610 FLAVIGNIE GERARD HOMME 50 0:54:00 05:10 11.63
58 455 GILLEMAN PIERRE HOMME 51 0:54:11 05:11 11.59
59 677 MOTTE ALAND HOMME 52 0:54:15 05:11 11.57
60 678 RICHARD ELEONORE DAME 7 0:54:16 05:11 11.57
61 497 WARTEL PIERRICK HOMME 53 0:54:20 05:12 11.55
62 459 DEGRAEVE ALAIN HOMME 54 0:54:26 05:12 11.53
63 721 VANASCHE VINCENT HOMME 55 0:54:38 05:13 11.49
64 613 VANDENBULCKE ARNAUD HOMME 56 0:54:40 05:14 11.48
65 675 BROUSSE JEROME HOMME 57 0:54:40 05:14 11.48
66 655 BAUTS YVES HOMME 58 0:54:40 05:14 11.48
67 628 LECHANTRE SYLVETTE DAME 8 0:54:40 05:14 11.48
68 458 TIJANI SALAH HOMME 59 0:54:47 05:14 11.46
69 630 COLLIE MARIE JO DAME 9 0:54:49 05:14 11.45
70 632 WESTRADE BRUNO HOMME 60 0:54:51 05:15 11.44
71 491 CARBON TRISTAN HOMME 61 0:54:51 05:15 11.44
72 435 DETOURNAY CAROLINE DAME 10 0:54:53 05:15 11.44
73 438 CARETTE MICKAEL HOMME 62 0:55:04 05:16 11.40
74 432 DEWULF STEVE HOMME 63 0:55:11 05:16 11.38
75 616 MONTEGNIES JEAN JACQUES HOMME 64 0:55:24 05:18 11.33
76 466 DEPOORTER JULIAN HOMME 65 0:55:25 05:18 11.33
77 720 WANTRAPPE MANON DAME 11 0:55:31 05:18 11.31
78 477 DEJANS DAVID HOMME 66 0:55:32 05:18 11.30
79 722 VAN BOST HUGO HOMME 67 0:55:33 05:19 11.30
80 454 MESSIAEN SÉBASTIEN HOMME 68 0:55:52 05:20 11.24
81 614 DECOURCELLE CHRISTIAN HOMME 69 0:55:58 05:21 11.22
82 467 LEMÉE FLORIAN HOMME 70 0:55:59 05:21 11.21
83 601 DEVOGHEL LAURENT HOMME 71 0:56:46 05:26 11.06
84 692 DELCAMPE MAXIME HOMME 72 0:56:51 05:26 11.04
85 688 DE BILLOËZ QUENTIN HOMME 73 0:56:54 05:26 11.03
86 730 MAES GEOFFREY HOMME 74 0:56:55 05:26 11.03
87 517 SANCTORUM STEVIE A 2 0:57:05 05:27 11.00
88 618 MESTDAGH VINCENT HOMME 75 0:57:10 05:28 10.98
89 736 REHEUL JEAN MICHEL HOMME 76 0:57:14 05:28 10.97
90 737 REHEUL RENAUD HOMME 77 0:57:15 05:28 10.97
91 663 CLEENWERCK STEPHANE HOMME 78 0:57:22 05:29 10.94
92 487 OFFROY DAVID HOMME 79 0:57:30 05:30 10.92
93 708 VANDERBEKE JEREMY HOMME 80 0:57:31 05:30 10.91
94 671 VANDEVYVERE TEDDY HOMME 81 0:57:50 05:32 10.85
95 471 WINAND JEAN-YVES HOMME 82 0:57:50 05:32 10.85
96 490 VANDENBULCKE MÉLANIE DAME 12 0:57:54 05:32 10.84
97 673 HESPEL MATTHIEU HOMME 83 0:57:54 05:32 10.84
98 437 ROCKMANS FABRICE HOMME 84 0:57:57 05:32 10.83
99 551 DALLA MONTÀ LORENZO HOMME 85 0:58:03 05:33 10.81
100 547 VANBOQUESTAL EMILIE DAME 13 0:58:04 05:33 10.81
101 485 VANDENBULCKE FRANCIS HOMME 86 0:58:05 05:33 10.81
102 539 LETERME COLIN HOMME 87 0:58:10 05:34 10.79
103 649 DEGRANDE CHRISTOPHE HOMME 88 0:58:13 05:34 10.78
104 668 CARREZ MYRIAM DAME 14 0:58:22 05:35 10.76
105 429 SPRIET JENNIFER DAME 15 0:58:23 05:35 10.75
106 483 VANHOUTTE CINDY DAME 16 0:58:31 05:36 10.73
107 694 VANDERZYPPE GÉRAUD HOMME 89 0:58:33 05:36 10.72
108 484 SOSA LUQUE JOSÉ-ANTONIO HOMME 90 0:58:35 05:36 10.72
109 470 DUVEILLER LAURENCE HOMME 91 0:58:37 05:36 10.71
110 453 LEBLANC CARINE DAME 17 0:58:49 05:37 10.67
111 622 LEMOINE CHRISTELLE DAME 18 0:58:50 05:37 10.67
112 709 NAESSENS NATHALIE DAME 19 0:58:56 05:38 10.65
113 486 HERPOEL ANAIS DAME 20 0:58:56 05:38 10.65
114 464 BAETENS MARTIN HOMME 92 0:58:57 05:38 10.65
115 612 MESTDAGH PASCAL HOMME 93 0:58:59 05:38 10.64
116 546 DETOLLENAERE EMILE HOMME 94 0:59:02 05:39 10.63
117 711 QUIGNON EVA DAME 21 0:59:02 05:39 10.63
118 611 MOULIN PASCALE DAME 22 0:59:03 05:39 10.63
119 603 GUERIERI VÉRONIQUE DAME 23 0:59:03 05:39 10.63
120 545 DETOLLENAERE DAMIEN HOMME 95 0:59:04 05:39 10.63
121 696 RYCKEBOSCH LUDWIG HOMME 96 0:59:04 05:39 10.63
122 710 SABBE HUBERT HOMME 97 0:59:05 05:39 10.62
123 591 MOREAU RITA DAME 24 0:59:13 05:40 10.60
124 635 ROISSE LUCAS HOMME 98 0:59:22 05:40 10.57
125 505 LEMAHIEU MÉLANIE DAME 25 0:59:24 05:41 10.57
126 609 VANNIEUWENHUYSE FRANÇOISE DAME 26 0:59:29 05:41 10.55
127 634 DEKOSTER PHILIPPE HOMME 99 0:59:31 05:41 10.55
128 548 VANBOQUESTAL XAVIER HOMME 100 0:59:31 05:41 10.55
129 443 MAERTENS ALLISON DAME 27 0:59:32 05:41 10.54
130 657 VAN DE PUTTE WILLY HOMME 101 0:59:38 05:42 10.53
131 615 LEFEBVRE RONALS HOMME 102 0:59:38 05:42 10.53
132 537 DELMOTTE CÉLINE DAME 28 0:59:39 05:42 10.52
133 544 DECLERCQ FRANÇOISE DAME 29 0:59:39 05:42 10.52
134 643 HASBROUCQ ISABELLE DAME 30 0:59:40 05:42 10.52
135 457 WALLEZ ISABELLE DAME 31 0:59:42 05:42 10.52
136 687 RENARD LOUISE DAME 32 0:59:47 05:43 10.50
137 514 GUITTON ANTOINE HOMME 103 0:59:52 05:43 10.49
138 512 DHALLUIN ELODIE DAME 33 0:59:57 05:44 10.47
139 509 PUTMAN MAXIME HOMME 104 0:59:57 05:44 10.47
140 712 POLVECHE CHARLOTTE DAME 34 1:00:05 05:45 10.45
141 599 SERGEANT OLIVIER HOMME 105 1:00:06 05:45 10.45
142 476 DELAPYNE SEBASTIEN HOMME 106 1:00:07 05:45 10.44
143 659 CHIAVON NATHALIE DAME 35 1:00:13 05:45 10.42
144 473 WINAND BRICE HOMME 107 1:00:16 05:46 10.42
145 556 LECLERCQ EVELYNE DAME 36 1:00:17 05:46 10.41
146 648 DEPRAETERE HERVE HOMME 108 1:00:18 05:46 10.41
147 448 DEJAS KEVIN HOMME 109 1:00:21 05:46 10.40
148 482 DUZERT JULIE DAME 37 1:00:21 05:46 10.40
149 646 ORGAER STEPHAN HOMME 110 1:00:21 05:46 10.40
150 569 AMEYE JEAN NOËL HOMME 111 1:00:21 05:46 10.40
151 647 DENDIEVEL CLOTI!LDE DAME 38 1:00:21 05:46 10.40
152 480 HOUDART DAPHNÉ DAME 39 1:00:24 05:46 10.39
153 723 VINCKIER CAMILLE DAME 40 1:00:27 05:47 10.38
154 555 WULLENS CHARLOTTE DAME 41 1:00:36 05:48 10.36
155 707 FONTAINE PHILIPPE HOMME 112 1:00:36 05:48 10.36
156 522 BRAEM ANTOINE HOMME 113 1:00:37 05:48 10.36
157 571 LA MARCHE DOMINIQUE DAME 42 1:00:40 05:48 10.35
158 488 HERPOEL XAVIER HOMME 114 1:00:40 05:48 10.35
159 478 VAN DAELE AUGUSTIN HOMME 115 1:00:41 05:48 10.34
160 644 DOUILLET FREDERIC HOMME 116 1:00:44 05:48 10.34
161 418 POSLEDNIK MARIE DAME 43 1:00:44 05:48 10.34
162 697 MAES ROMAIN HOMME 117 1:00:51 05:49 10.32
163 621 DELEDIQUE FABIENNE DAME 44 1:00:59 05:50 10.29
164 706 DECRUYENAERE FRÉDÉRIC HOMME 118 1:01:05 05:50 10.28
165 664 DECRUYENAERE CÉLINE DAME 45 1:01:14 05:51 10.25
166 413 LORIDAN SEBASTIEN HOMME 119 1:01:14 05:51 10.25
167 417 VOET VANESSA DAME 46 1:01:16 05:51 10.25
168 651 CHOISEZ NATHALIE DAME 47 1:01:21 05:52 10.23
169 704 LECLERCQ MICHEL HOMME 120 1:01:30 05:53 10.21
170 576 VANHEE FRÉDÉRIC HOMME 121 1:01:30 05:53 10.21
171 750 GHEYSENS OLIVIER HOMME 122 1:01:34 05:53 10.20
172 507 DEKIMPE ANNE LISE DAME 48 1:01:55 05:55 10.14
173 440 DELLETTRE MARIE-FRANÇOISE DAME 49 1:01:59 05:55 10.13
174 608 MARTENS STÉPHANE HOMME 123 1:02:02 05:56 10.12
175 658 VOITURIER LAURENT HOMME 124 1:02:05 05:56 10.11
176 598 COSAERT HUGUES HOMME 125 1:02:06 05:56 10.11
177 639 COUSSEMENT ALEXANDRA DAME 50 1:02:09 05:56 10.10
178 698 MARZA OANA MARIA DAME 51 1:02:11 05:57 10.10
179 575 VANDERBEKE PAULINE DAME 52 1:02:13 05:57 10.09
180 714 POTTEAU ANNE DAME 53 1:02:18 05:57 10.08
181 607 MAKELBERGE CARINE DAME 54 1:02:24 05:58 10.06
182 527 VANDECASTEELE SAMUEL HOMME 126 1:02:26 05:58 10.05
183 528 BOUGARD MARINE DAME 55 1:02:30 05:58 10.04
184 594 GRIFFO LAURA DAME 56 1:02:32 05:59 10.04
185 717 VEYS LOUIS HOMME 127 1:02:43 06:00 10.01
186 682 VANSTEENBRUGGE DOMINIQUE DAME 57 1:02:47 06:00 10.00
187 626 DEBOEVER FRANCIS HOMME 128 1:02:48 06:00 10.00
188 516 BERNAERT JOEL HOMME 129 1:02:49 06:00 9.99
189 474 DJIDEL SORAYA DAME 58 1:02:56 06:01 9.97
190 536 POLLIN KATTY DAME 59 1:02:56 06:01 9.97
191 534 CASTEL LAURENT HOMME 130 1:02:56 06:01 9.97
192 670 DELBART VALERIE DAME 60 1:02:58 06:01 9.97
193 593 SIEUW KATRIEN DAME 61 1:03:19 06:03 9.91
194 409 WALRAET FREDERIC HOMME 131 1:03:20 06:03 9.91
195 638 LEERSNYDER JOEL HOMME 132 1:03:21 06:03 9.91
196 595 MOULARD SOPHIE DAME 62 1:03:22 06:03 9.91
197 733 DELANNAY JULIE DAME 63 1:03:44 06:05 9.85
198 460 DERUYCK STEVE HOMME 133 1:03:45 06:06 9.85
199 703 MIHALACHE GEORGEL HOMME 134 1:03:48 06:06 9.84
200 461 DELANNOY AMELIE DAME 64 1:03:49 06:06 9.84
201 662 LEROY AUDREY DAME 65 1:03:57 06:07 9.82
202 424 MATON LAETITIA DAME 66 1:03:58 06:07 9.81
203 732 GIORDANO NADEGE DAME 67 1:03:58 06:07 9.81
204 510 BOUDAILLIEZ GÉRALDINE DAME 68 1:04:00 06:07 9.81
205 542 WALLEZ ALICE DAME 69 1:04:02 06:07 9.80
206 541 VAILLANT FRANÇOIS HOMME 135 1:04:07 06:08 9.79
207 679 BOUHON AMANDINE DAME 70 1:04:14 06:08 9.77
208 667 RAPOSO MARIA DAME 71 1:04:19 06:09 9.76
209 653 GEENENS ADRIEN HOMME 136 1:04:21 06:09 9.76
210 652 GEENENS BRUNO HOMME 137 1:04:22 06:09 9.75
211 430 DUPONCHEEL NOEMIE DAME 72 1:04:33 06:10 9.73
212 407 BEAUVILLAIN (GRIZOU) ANTOYNE HOMME 138 1:04:46 06:11 9.69
213 406 BEAUVILLAIN FRED DAME 73 1:04:47 06:12 9.69
214 592 GRIVET DOMINIQUE HOMME 139 1:04:49 06:12 9.69
215 519 ANTOIN NOÉMIE DAME 74 1:04:49 06:12 9.69
216 596 SYLVART TAMARA DAME 75 1:04:49 06:12 9.69
217 518 ANTOIN ESTELLE DAME 76 1:04:49 06:12 9.69
218 727 LECROART THÉO HOMME 140 1:04:50 06:12 9.68
219 669 DUPUIS VALÉRIE DAME 77 1:04:58 06:13 9.66
220 656 BRUTIN VIRGINIE DAME 78 1:05:11 06:14 9.63
221 481 BOURG MATHYS HOMME 141 1:05:18 06:14 9.61
222 554 DECRAENE SIOBAN HOMME 142 1:05:19 06:15 9.61
223 462 OSTYN MARTION A 3 1:05:22 06:15 9.60
224 627 DEBOEVER GUILLAUME HOMME 143 1:05:22 06:15 9.60
225 552 BRILMAN AUDE DAME 79 1:05:23 06:15 9.60
226 449 DENEYER ROSELINE DAME 80 1:05:24 06:15 9.60
227 475 VERGAUWE LIEZE DAME 81 1:05:25 06:15 9.60
228 463 PLQUET CEDRIC HOMME 144 1:05:26 06:15 9.59
229 479 BOURG SONIA DAME 82 1:05:30 06:16 9.58
230 515 SNAPPE ANNE DAME 83 1:05:49 06:17 9.54
231 570 DUTOIT ISABELLE DAME 84 1:06:06 06:19 9.50
232 420 PIPART UGO HOMME 145 1:06:19 06:20 9.47
233 729 CARTON PERRINE DAME 85 1:06:24 06:21 9.45
234 726 DUCOULEMBIER ALINE DAME 86 1:06:25 06:21 9.45
235 508 DELECROIX ANNE CATHERINE DAME 87 1:06:25 06:21 9.45
236 584 CLÉMENT NATHALIE DAME 88 1:06:34 06:22 9.43
237 585 GOREZ ISABELLE DAME 89 1:06:35 06:22 9.43
238 583 DE BECKER KATHY DAME 90 1:06:37 06:22 9.42
239 582 CLÉMENT GEORGES HOMME 146 1:06:38 06:22 9.42
240 421 PIPART ALEXANDRE HOMME 147 1:06:41 06:22 9.41
241 577 BEERNAERT DIDIER HOMME 148 1:06:46 06:23 9.40
242 560 VAN BRUSSEL ANNE-PHILIPPE DAME 91 1:06:47 06:23 9.40
243 561 SYLVART CHARLOTTE DAME 92 1:06:47 06:23 9.40
244 553 DECRAENE JIMMY HOMME 149 1:06:56 06:24 9.38
245 654 LISE GEENENS DAME 93 1:07:09 06:25 9.35
246 713 LEROY AUDE DAME 94 1:07:09 06:25 9.35
247 684 DEPROST SOPHIE DAME 95 1:07:24 06:27 9.31
248 674 MULLER JULIETTE DAME 96 1:07:38 06:28 9.28
249 742 HOLVOET DELPHINE DAME 97 1:08:01 06:30 9.23
250 637 COLLIE SABINE DAME 98 1:08:19 06:32 9.19
251 685 FPNTAINE LUC HOMME 150 1:08:20 06:32 9.19
252 441 SAELENS MAUD DAME 99 1:08:20 06:32 9.19
253 562 VISTE NATHALIE DAME 100 1:08:20 06:32 9.19
254 645 BOURSIER AUDE DAME 101 1:08:21 06:32 9.18
255 563 REMBAUD CÉLINE DAME 102 1:08:23 06:32 9.18
256 568 DUMONT VIRGINIE DAME 103 1:08:23 06:32 9.18
257 567 COSSEMENT CAROLINE DAME 104 1:08:23 06:32 9.18
258 559 DELFOSSE SÉVERINE DAME 105 1:08:26 06:32 9.17
259 431 AMPE JUSTINE DAME 106 1:08:38 06:34 9.15
260 681 VAN GYSEL EMILIE DAME 107 1:08:44 06:34 9.13
261 641 DERNIES CHLOE DAME 108 1:08:48 06:35 9.12
262 743 COLOSIMO SYLVIE DAME 109 1:08:51 06:35 9.12
263 741 LIETAER ANNE DAME 110 1:08:54 06:35 9.11
264 702 DEMULLIER ELISE DAME 111 1:08:59 06:36 9.10
265 493 ROUSSEAU MANON DAME 112 1:09:50 06:40 8.99
266 578 BEERNAERT JUSTIN HOMME 151 1:09:54 06:41 8.98
267 557 REANT FABRICE HOMME 152 1:10:26 06:44 8.91
268 558 REANT VIRGINIE DAME 113 1:10:29 06:44 8.91
269 683 MEUNIER JULIEN HOMME 153 1:10:33 06:45 8.90
270 680 CHARLES STEPHANE HOMME 154 1:10:38 06:45 8.89
271 636 DROULEZ STEPHANIE DAME 114 1:10:38 06:45 8.89
272 605 HENRY BERNARD HOMME 155 1:10:43 06:46 8.88
273 604 HENRY VALENTINE DAME 115 1:10:43 06:46 8.88
274 436 ROCKMANS STEPHANIE DAME 116 1:10:50 06:46 8.86
275 494 BELHAKAM SYLVIE DAME 117 1:10:50 06:46 8.86
276 503 DUCROCQ ELODIE DAME 118 1:11:10 06:48 8.82
277 504 DE RUYCK JENNIFER DAME 119 1:11:11 06:48 8.82
278 423 DE ROECK ANOUCHKA DAME 120 1:11:43 06:51 8.75
279 566 CATTEAU PAULINE DAME 121 1:11:44 06:51 8.75
280 633 HAUDEZ MARYLINE DAME 122 1:12:21 06:55 8.68
281 565 DEPOURCQ PEGGY DAME 123 1:12:23 06:55 8.67
282 433 BERNARD LUCIE DAME 124 1:12:23 06:55 8.67
283 452 GORRIQUER CÉCILE DAME 125 1:12:23 06:55 8.67
284 705 RAMANANTSEHENO BARY HOMME 156 1:12:35 06:56 8.65
285 529 LEGRAND CÉCILE DAME 126 1:12:37 06:56 8.64
286 533 COUSSÉ EMILIE DAME 127 1:12:37 06:56 8.64
287 526 SCHOTTE CARINE DAME 128 1:12:38 06:57 8.64
288 745 PONZONI LAURA DAME 129 1:13:15 07:00 8.57
289 693 DEKOSTER PAULINE DAME 130 1:13:16 07:00 8.57
290 691 DUTRANNOIS ELODIE DAME 131 1:13:17 07:00 8.57
291 744 VALEMBERG BASTIEN HOMME 157 1:13:17 07:00 8.57
292 746 DEKOSTER THIBAUT DAME 132 1:13:17 07:00 8.57
293 719 PLATEAU ANTOINE HOMME 158 1:13:18 07:00 8.56
294 718 DELERUELLE CAMILLE DAME 133 1:13:20 07:01 8.56
295 586 RYSSELINCK DYLAN HOMME 159 1:13:21 07:01 8.56
296 660 VERPEUT VALENTIN HOMME 160 1:13:21 07:01 8.56
297 629 THIRIONET CEDRIC HOMME 161 1:13:21 07:01 8.56
298 581 POLLET LAURENCE HOMME 162 1:13:22 07:01 8.56
299 579 SPINEWINE CATHERINE DAME 134 1:13:23 07:01 8.55
300 447 RYS STÉPHANIE DAME 135 1:13:44 07:03 8.51
301 511 VAN DORPE MARTHE DAME 136 1:13:46 07:03 8.51
302 502 LOMBART VIRGINIE DAME 137 1:13:52 07:04 8.50
303 543 VERSCHEURE STÉPHANIE DAME 138 1:14:03 07:05 8.48
304 650 LUCAS ELISE DAME 139 1:14:04 07:05 8.48
305 734 COMBLEZ TANGUY HOMME 163 1:14:05 07:05 8.47
306 573 REMMERIE DELPHINE DAME 140 1:14:07 07:05 8.47
307 496 WIBAUT ISABELLE DAME 141 1:15:04 07:10 8.36
308 499 ROUMANOFF ANNE DAME 142 1:15:16 07:12 8.34
309 498 WARTEL JOYCE DAME 143 1:15:17 07:12 8.34
310 589 NOLS NATHALIE DAME 144 1:15:18 07:12 8.34
311 739 739 N.N. HOMME 164 1:15:55 07:15 8.27
312 738 MAURICE ORLANE DAME 145 1:15:56 07:15 8.27
313 492 LIEBENS PERRINE DAME 146 1:16:42 07:20 8.18
314 402 LOMBART CHRISTINE DAME 147 1:16:42 07:20 8.18
315 521 COUSSÉ NATHALIE DAME 148 1:17:54 07:27 8.06
316 513 MERCIER CLÉMENT HOMME 165 1:18:46 07:32 7.97
317 535 CASTELEIN ELYNE DAME 149 1:19:04 07:33 7.94
318 538 SAELEN AMELIE DAME 150 1:19:05 07:34 7.94
319 699 QUITTELIER CINDY DAME 151 1:23:07 07:57 7.55
320 700 WILLIAME VINCENT HOMME 166 1:23:09 07:57 7.55
321 666 COLIN PASCAL HOMME 167 1:25:30 08:10 7.34